Flag for Netherlands Weather past 2 weeks in Apeldoorn, Netherlands

Now
48 °F

Mostly cloudy.


Feels Like: 45 °F
Forecast: 37 / 52 °F
Wind: 7 mph from North

Location: Deelen

Current Time: Apr 26, 2015 at 11:17:29 PM

Latest Report: Apr 26, 2015 at 10:55 PM


Visibility: N/A

Pressure: 29.71 "Hg

Humidity: 87%

Dew point: 45 °F

Location of ApeldoornLocation

Historic Weather in Apeldoorn — Graph

°F

Apeldoorn temperature yesterday

Maximum temperature yesterday: 59 °F (at 12:55 PM)
Minimum temperature yesterday: 46 °F (at 10:55 PM)
Average temperature yesterday: 53 °F

Past Weeks' High & Low Weather Summary

 TemperatureHumidityPressure
High73 °F (Apr 15, 3:55 PM)100% (Apr 13, 7:25 AM)30.48 "Hg (Apr 13, 7:25 AM)
Low28 °F (Apr 19, 5:55 AM)28% (Apr 21, 1:55 PM)29.68 "Hg (Apr 26, 5:25 AM)
Average50 °F70%30.15 "Hg
* Reported Apr 11 9:25 PM — Apr 26 9:55 PM, Apeldoorn, Weather by CustomWeather, © 2015

Note: Actual official high and low records may vary slightly from our data, if they occured in-between our weather recording intervals... More about our weather records

Advertising

Apeldoorn weather history for previous 24 hours

 ConditionsComfort  
Time TempWeatherWind HumidityBarometerVisibility
9:55 PM
Sun, Apr 26
48 °FLow clouds.8 mph87%29.71 "HgN/A
9:25 PM48 °FLow clouds.8 mph94%29.71 "HgN/A
8:55 PM48 °FBroken clouds.9 mph87%29.71 "HgN/A
8:25 PM50 °FLow clouds.9 mph88%29.68 "HgN/A
7:55 PM50 °FDrizzle. Mostly cloudy.9 mph88%29.68 "HgN/A
7:25 PM52 °FMostly cloudy.9 mph82%29.68 "HgN/A
6:55 PM52 °FDrizzle. Overcast.8 mph88%29.68 "HgN/A
6:25 PM54 °FMostly cloudy.8 mph82%29.68 "HgN/A
5:55 PM55 °FMostly cloudy.8 mph82%29.68 "HgN/A
5:25 PM55 °FCloudy.6 mph82%29.68 "HgN/A
4:55 PM55 °FCloudy.8 mph82%29.68 "HgN/A
4:25 PM57 °FMore clouds than sun.6 mph77%29.68 "HgN/A
3:55 PM57 °FPartly sunny.7 mph77%29.68 "HgN/A
3:25 PM57 °FMostly cloudy.7 mph77%29.71 "HgN/A
2:55 PM55 °FOvercast.5 mph82%29.71 "HgN/A
2:25 PM55 °FOvercast.8 mph82%29.71 "HgN/A
1:55 PM55 °FBroken clouds.12 mph82%29.71 "HgN/A
1:25 PM57 °FMostly cloudy.6 mph77%29.71 "HgN/A
12:55 PM57 °FBroken clouds.7 mph77%29.71 "HgN/A
12:25 PM55 °FMostly cloudy.9 mph82%29.71 "HgN/A
11:55 AM57 °FBroken clouds.9 mph82%29.71 "HgN/A
11:25 AM55 °FFog.13 mph88%29.71 "Hg6 mi
10:55 AM55 °FFog.10 mph88%29.71 "Hg5 mi
10:25 AM55 °FFog.9 mph88%29.71 "Hg6 mi
9:55 AM54 °FFog.8 mph94%29.71 "Hg3 mi
9:25 AM54 °FDrizzle. Broken clouds.8 mph94%29.71 "Hg3 mi
8:55 AM52 °FLight rain. Broken clouds.7 mph100%29.71 "Hg6 mi
8:25 AM54 °FFog.5 mph94%29.71 "Hg6 mi
7:55 AM52 °FFog.5 mph100%29.71 "Hg3 mi
7:25 AM52 °FFog.5 mph100%29.71 "Hg2 mi
6:55 AM50 °FFog.5 mph100%29.68 "Hg2 mi
6:25 AM52 °FRain showers. Partly cloudy.6 mph100%29.68 "Hg1 mi
5:55 AM52 °FLight rain. Partly cloudy.5 mph94%29.68 "Hg1 mi
5:25 AM52 °FDrizzle. Overcast.3 mph100%29.68 "Hg1 mi
4:55 AM52 °FFog.5 mph94%29.71 "Hg2 mi
4:25 AM52 °FDrizzle. Mostly cloudy.6 mph94%29.71 "Hg2 mi
3:55 AM52 °FSprinkles. Mostly cloudy.7 mph94%29.71 "Hg3 mi
3:25 AM50 °FSprinkles. Mostly cloudy.7 mph94%29.71 "Hg4 mi
2:55 AM50 °FPartly cloudy.1 mph94%29.71 "Hg4 mi
2:25 AM48 °FFog.2 mph94%29.71 "Hg4 mi
1:55 AM48 °FFog.2 mph94%29.71 "Hg5 mi
1:25 AM48 °FFog.3 mph94%29.74 "Hg6 mi
12:55 AM45 °FFog.2 mph100%29.74 "Hg5 mi
12:25 AM45 °FFog.2 mph100%29.74 "Hg5 mi
11:55 PM
Sat, Apr 25
46 °FFog.2 mph93%29.74 "Hg4 mi
Weather by CustomWeather, © 2015

See weather overviewHow to use our weather pages